Orbital Elements at Epoch 2459200.5 (2020-Dec-17.0) TDB
Reference: JPL 13 (heliocentric ecliptic J2000)
Element | Value | Uncertainty (1-sigma) | Units |
e | .03916534495397732 | 7.8823e-08 | |
a | 3.063266126409549 | 3.9391e-08 | au |
q | 2.943292251882885 | 2.6602e-07 | au |
i | 11.04018188318116 | 6.2124e-06 | deg |
node | 47.76226425645935 | 3.0343e-05 | deg |
peri | 296.4658887127239 | 8.1848e-05 | deg |
M | 359.1720003365522 | 7.3386e-05 | deg |
tp | 2459205.004049752171 (2020-Dec-21.50404975) | 0.00039919 | TDB |
period | 1958.283296915614 5.36 | 3.7772e-05 1.034e-07 | d yr |
n | .1838344842990881 | 3.5459e-09 | deg/d |
Q | 3.183240000936213 | 4.0933e-08 | au |
|
| | Orbit Determination Parameters
Additional Information
|